This demonstration page uses our WeatherBlox Daily Observations layout. Learn more.

39.29038, -76.61219

Hourly Observations for October 7, 2019

Temp ( °F °C ) Dew Point ( °F °C ) Humidity (%) Winds ( mph kmh ) Pressure ( in mb ) Visibility ( mi km ) Precip ( " mm )
12:54 am 00:54 undefined 72 22.2 62 16.7 71 71 undefined N/A 30.19 1022 N/A 0 0
1:54 am 01:54 undefined 72 22.2 60 15.6 66 66 undefined N/A 30.18 1022 N/A 0 0
2:54 am 02:54 undefined 71 21.7 60 15.6 68 68 undefined N/A 30.16 1022 N/A 0 0
3:54 am 03:54 undefined 71 21.7 59 15 66 66 undefined N/A 30.15 1021 N/A 0 0
4:54 am 04:54 undefined 71 21.7 59 15 66 66 undefined N/A 30.16 1021 N/A 0 0
5:54 am 05:54 undefined 71 21.7 60 15.6 68 68 undefined N/A 30.16 1021 N/A 0 0
6:54 am 06:54 undefined 71 21.7 60 15.6 68 68 undefined N/A 30.16 1021 N/A 0 0
7:54 am 07:54 undefined 71 21.7 60 15.6 68 68 undefined N/A 30.17 1022 N/A 0 0
8:54 am 08:54 undefined 71 21.7 61 16.1 71 71 undefined N/A 30.17 1022 N/A 0 0
9:54 am 09:54 undefined 73 22.8 61 16.1 66 66 undefined N/A 30.16 1021 N/A 0 0
10:54 am 10:54 undefined 78 25.6 62 16.7 58 58 undefined N/A 30.15 1021 N/A 0 0
11:54 am 11:54 undefined 79 26.1 62 16.7 56 56 undefined N/A 30.13 1020 N/A 0 0
12:54 pm 12:54 undefined 80 26.7 61 16.1 52 52 undefined N/A 30.11 1020 N/A 0 0
1:54 pm 13:54 undefined 81 27.2 60 15.6 49 49 undefined N/A 30.08 1019 N/A 0 0
2:54 pm 14:54 undefined 83 28.3 59 15 44 44 undefined N/A 30.06 1018 N/A 0 0
3:54 pm 15:54 undefined 81 27.2 59 15 47 47 undefined N/A 30.05 1018 N/A 0 0
4:54 pm 16:54 undefined 81 27.2 58 14.4 45 45 undefined N/A 30.04 1017 N/A 0 0
5:54 pm 17:54 undefined 78 25.6 61 16.1 56 56 undefined N/A 30.04 1017 N/A 0 0
6:54 pm 18:54 undefined 76 24.4 59 15 56 56 undefined N/A 30.05 1018 N/A 0 0
7:54 pm 19:54 undefined 74 23.3 62 16.7 67 67 undefined N/A 30.08 1019 N/A 0 0
8:54 pm 20:54 undefined 65 18.3 58 14.4 78 78 undefined N/A 30.12 1020 N/A 0 0
9:54 pm 21:54 undefined 63 17.2 57 13.9 81 81 undefined N/A 30.15 1021 N/A 0.03 0.762
10:54 pm 22:54 undefined 61 16.1 57 13.9 87 87 undefined N/A 30.19 1022 N/A 0.05 1.27
11:54 pm 23:54 undefined 60 15.6 56 13.3 86 86 undefined N/A 30.18 1022 N/A 0.03 0.762

Powered by AerisWeather